SCP
0 0 0 0 0 0 0 0 0 0 0 0 0 0 0 0 0 0 0 0 0 0 0 0 0 0 0 0 0 0 0 0
0 0 0 0 0 0 0 0 0 0 0 0 0 0 0 0 0 0 0 0 0 0 0 0 0 0 0 0 0 0 0 0
0 0 0 0 0 0 0 0 0 0 0 0 0 0 0 0 0 0 0 0 0 0 0 0 0 0 0 0 0 0 0 0
0 0 0 0 0 0 0 0 0 0 0 0 0 0 0 0 0 0 0 0 0 0 0 0 0 0 0 0 0 0 0 0
0 0 0 0 0 0 0 0 0 0 0 0 0 0 0 0 0 0 0 0 0 0 0 0 0 0 0 0 0 0 0 0
0 0 0 0 0 0 0 0 0 0 0 0 0 0 0 0 0 0 0 0 0 0 0 0 0 0 0 0 0 0 0 0
0 0 0 0 0 0 0 0 0 0 0 0 0 0 0 0 0 0 0 0 0 0 0 0 0 0 0 0 0 0 0 0
0 0 0 0 0 0 0 0 0 0 0 0 0 0 0 0 0 0 0 0 0 0 0 0 0 0 0 0 0 0 0 0
0 0 0 0 0 0 0 0 0 0 0 0 0 0 0 0 0 0 0 0 0 0 0 0 0 0 0 0 0 0 0 0
0 0 0 0 0 0 0 0 0 0 0 0 0 0 0 0 0 0 0 0 0 0 0 0 0 0 0 0 0 0 0 0
0 0 0 0 0 0 0 0 0 0 0 0 0 0 0 0 0 0 0 0 0 0 0 0 0 0 0 0 0 0 0 0
0 0 0 0 0 0 0 0 0 0 0 0 0 0 0 0 0 0 0 0 0 0 0 0 0 0 0 0 0 0 0 0
0 0 0 0 0 0 0 0 0 0 0 0 0 0 0 0 0 0 0 0 0 0 0 0 0 0 0 0 0 0 0 0
0 0 0 0 0 0 0 0 0 0 0 0 0 0 0 0 0 0 0 0 0 0 0 0 0 0 0 0 0 0 0 0
0 0 0 0 0 0 0 0 0 0 0 0 0 0 0 0 0 0 0 0 0 0 0 0 0 0 0 0 0 0 0 0
0 0 0 0 0 0 0 0 0 0 0 0 0 0 0 0 0 0 0 0 0 0 0 0 0 0 0 0 0 0 0 0
0 0 0 0 0 0 0 0 0 0 0 0 0 0 0 0 0 0 0 0 0 0 0 0 0 0 0 0 0 0 0 0
0 0 0 0 0 0 0 0 0 0 0 0 0 0 0 0 0 0 0 0 0 0 0 0 0 0 0 0 0 0 0 0
0 0 0 0 0 0 0 0 0 0 0 0 0 0 0 0 0 0 0 0 0 0 0 0 0 0 0 0 0 0 0 0
0 0 0 0 0 0 0 0 0 0 0 0 0 0 0 0 0 0 0 0 0 0 0 0 0 0 0 0 0 0 0 0
Wind_Speed_500mb
41 49 51 53 56 60 63 66 63 61 55 49 41 32 24 18 15 15 17 19 23 27 32 38 43 43 44 44 43 39 39 41
36 41 45 50 56 60 62 66 66 67 60 54 45 35 27 20 16 13 14 16 21 25 30 35 40 42 43 43 41 38 36 37
32 37 44 51 55 59 61 65 66 67 63 58 48 39 30 22 17 13 11 12 17 23 28 32 37 41 42 41 38 37 35 36
32 37 42 48 54 59 60 64 65 68 66 62 53 44 33 25 19 14 9 9 14 19 25 29 35 40 39 38 35 34 31 32
30 32 39 46 52 57 60 65 66 67 69 64 56 45 35 29 23 16 10 6 10 15 22 26 33 37 35 35 32 30 28 27
37 39 42 46 52 60 63 66 65 66 71 67 59 50 41 34 27 20 14 5 7 12 18 24 29 35 34 32 30 27 25 25
51 48 53 54 56 61 67 68 66 66 71 69 62 55 45 38 31 24 18 8 4 8 15 20 26 31 30 29 27 24 23 24
45 46 51 58 60 63 63 61 62 63 67 70 64 56 49 41 34 26 21 11 5 5 11 17 23 27 26 25 24 23 23 25
26 29 36 46 52 54 57 58 64 65 71 71 68 64 53 44 37 30 23 13 7 2 9 15 21 23 24 22 21 21 22 25
19 19 22 28 38 47 55 60 61 64 66 73 72 64 55 47 40 33 23 17 9 2 6 12 18 20 20 19 19 20 20 23
7 8 3 12 26 38 48 53 58 58 65 71 72 66 56 48 42 35 25 20 12 3 3 9 14 17 18 17 18 19 20 23
7 11 10 3 12 23 32 42 43 55 62 73 75 66 56 50 44 36 30 24 15 7 1 5 11 13 13 13 16 18 21 23
7 4 2 4 11 17 24 28 41 47 56 72 73 67 61 56 49 42 37 28 19 12 6 1 7 9 11 10 14 17 19 22
16 10 10 11 16 20 21 32 36 42 56 69 74 72 66 61 53 47 42 33 24 16 9 3 3 7 9 6 11 14 16 17
24 20 18 18 22 25 27 28 30 39 54 69 81 79 73 66 55 51 45 38 28 19 12 6 2 5 8 7 8 12 11 13
24 26 22 20 23 32 30 30 36 42 53 68 83 83 78 69 61 55 44 33 27 20 15 9 4 3 8 8 8 10 8 8
22 23 19 22 25 29 33 33 36 45 55 68 85 89 83 74 66 56 46 43 36 28 20 14 9 3 6 7 9 9 8 7
14 20 25 29 33 31 34 36 39 43 53 68 86 93 90 82 73 68 59 47 39 33 24 19 13 8 5 6 10 10 11 10
24 27 31 37 37 36 34 37 43 46 51 66 81 93 92 87 79 72 66 61 53 44 33 26 20 13 7 5 11 10 11 13
25 24 29 35 37 36 35 39 44 49 53 64 76 88 92 89 82 76 68 59 53 48 42 36 28 21 14 8 12 10 10 13
Wind_Direction_500mb
206 209 215 220 223 224 226 228 225 223 222 224 229 233 239 251 270 300 320 341 350 358 4 8 1 0 6 6 8 3 9 3
210 211 214 218 219 222 224 224 220 221 220 221 224 228 234 242 258 287 312 338 349 356 3 8 3 358 7 9 9 7 11 5
222 216 216 217 221 221 224 226 223 220 218 218 218 222 227 234 246 270 300 334 348 354 360 9 4 358 5 10 11 9 12 8
230 226 226 224 223 223 224 226 225 220 218 218 215 217 221 227 236 254 284 320 346 353 358 7 4 0 5 10 12 12 12 9
248 247 241 236 231 227 224 227 225 222 217 217 215 215 217 221 227 239 257 298 341 354 355 8 5 359 7 13 16 15 15 13
267 265 254 246 238 231 227 227 227 221 219 216 214 212 214 217 220 227 237 257 321 355 352 8 6 1 7 16 19 21 20 16
276 269 260 254 246 235 228 227 228 221 219 216 213 211 210 214 217 220 226 218 296 347 353 2 8 3 8 21 26 26 25 21
277 264 257 254 248 235 229 229 229 224 217 214 211 210 212 213 213 213 217 210 247 340 353 1 9 7 10 26 29 29 28 22
285 268 253 248 245 239 233 233 231 223 216 209 210 211 210 211 211 211 208 209 224 325 351 4 13 14 8 28 29 29 31 26
306 294 262 247 238 230 227 226 227 225 217 210 208 208 210 211 212 211 203 212 215 259 354 8 17 17 6 29 30 32 31 30
348 5 303 225 220 220 222 225 225 221 219 211 209 207 208 209 212 212 204 213 208 201 357 13 24 21 9 33 32 32 32 32
61 76 76 135 203 210 221 225 223 224 217 211 207 204 204 208 210 209 212 213 207 199 217 16 32 24 18 43 41 39 37 39
52 52 37 203 211 212 222 219 224 221 217 210 206 205 204 207 207 205 212 211 207 201 199 76 35 31 32 46 48 48 49 48
295 279 265 263 257 242 221 224 220 213 212 206 204 205 206 207 205 207 210 209 207 206 202 162 60 38 44 58 60 61 59 56
259 261 271 268 264 252 246 236 222 214 208 203 202 205 205 205 206 211 211 208 208 206 203 193 136 58 48 53 82 80 69 57
270 272 276 275 271 265 256 238 220 212 209 203 203 205 206 206 207 208 210 210 215 208 204 201 182 100 62 60 96 105 89 70
260 251 270 279 271 268 257 240 226 219 211 205 204 204 206 205 200 203 207 206 203 201 199 201 198 166 83 79 102 124 128 108
279 271 275 282 278 270 256 245 232 223 217 209 206 206 206 203 204 201 198 202 204 203 197 194 200 186 124 88 102 126 151 146
273 266 266 268 265 264 253 243 235 223 218 217 210 209 208 206 205 206 206 200 197 198 198 200 201 194 163 122 107 115 145 167
272 271 274 266 260 256 248 243 232 230 223 218 215 213 211 210 206 209 207 207 205 199 198 198 199 194 179 165 119 113 133 164
Wind_Speed_850mb
41 49 51 53 56 60 63 66 63 61 55 49 41 32 24 18 15 15 17 19 23 27 32 38 43 43 44 44 43 39 39 41
36 41 45 50 56 60 62 66 66 67 60 54 45 35 27 20 16 13 14 16 21 25 30 35 40 42 43 43 41 38 36 37
32 37 44 51 55 59 61 65 66 67 63 58 48 39 30 22 17 13 11 12 17 23 28 32 37 41 42 41 38 37 35 36
32 37 42 48 54 59 60 64 65 68 66 62 53 44 33 25 19 14 9 9 14 19 25 29 35 40 39 38 35 34 31 32
30 32 39 46 52 57 60 65 66 67 69 64 56 45 35 29 23 16 10 6 10 15 22 26 33 37 35 35 32 30 28 27
37 39 42 46 52 60 63 66 65 66 71 67 59 50 41 34 27 20 14 5 7 12 18 24 29 35 34 32 30 27 25 25
51 48 53 54 56 61 67 68 66 66 71 69 62 55 45 38 31 24 18 8 4 8 15 20 26 31 30 29 27 24 23 24
45 46 51 58 60 63 63 61 62 63 67 70 64 56 49 41 34 26 21 11 5 5 11 17 23 27 26 25 24 23 23 25
26 29 36 46 52 54 57 58 64 65 71 71 68 64 53 44 37 30 23 13 7 2 9 15 21 23 24 22 21 21 22 25
19 19 22 28 38 47 55 60 61 64 66 73 72 64 55 47 40 33 23 17 9 2 6 12 18 20 20 19 19 20 20 23
7 8 3 12 26 38 48 53 58 58 65 71 72 66 56 48 42 35 25 20 12 3 3 9 14 17 18 17 18 19 20 23
7 11 10 3 12 23 32 42 43 55 62 73 75 66 56 50 44 36 30 24 15 7 1 5 11 13 13 13 16 18 21 23
7 4 2 4 11 17 24 28 41 47 56 72 73 67 61 56 49 42 37 28 19 12 6 1 7 9 11 10 14 17 19 22
16 10 10 11 16 20 21 32 36 42 56 69 74 72 66 61 53 47 42 33 24 16 9 3 3 7 9 6 11 14 16 17
24 20 18 18 22 25 27 28 30 39 54 69 81 79 73 66 55 51 45 38 28 19 12 6 2 5 8 7 8 12 11 13
24 26 22 20 23 32 30 30 36 42 53 68 83 83 78 69 61 55 44 33 27 20 15 9 4 3 8 8 8 10 8 8
22 23 19 22 25 29 33 33 36 45 55 68 85 89 83 74 66 56 46 43 36 28 20 14 9 3 6 7 9 9 8 7
14 20 25 29 33 31 34 36 39 43 53 68 86 93 90 82 73 68 59 47 39 33 24 19 13 8 5 6 10 10 11 10
24 27 31 37 37 36 34 37 43 46 51 66 81 93 92 87 79 72 66 61 53 44 33 26 20 13 7 5 11 10 11 13
25 24 29 35 37 36 35 39 44 49 53 64 76 88 92 89 82 76 68 59 53 48 42 36 28 21 14 8 12 10 10 13
Wind_Direction_850mb
206 209 215 220 223 224 226 228 225 223 222 224 229 233 239 251 270 300 320 341 350 358 4 8 1 0 6 6 8 3 9 3
210 211 214 218 219 222 224 224 220 221 220 221 224 228 234 242 258 287 312 338 349 356 3 8 3 358 7 9 9 7 11 5
222 216 216 217 221 221 224 226 223 220 218 218 218 222 227 234 246 270 300 334 348 354 360 9 4 358 5 10 11 9 12 8
230 226 226 224 223 223 224 226 225 220 218 218 215 217 221 227 236 254 284 320 346 353 358 7 4 0 5 10 12 12 12 9
248 247 241 236 231 227 224 227 225 222 217 217 215 215 217 221 227 239 257 298 341 354 355 8 5 359 7 13 16 15 15 13
267 265 254 246 238 231 227 227 227 221 219 216 214 212 214 217 220 227 237 257 321 355 352 8 6 1 7 16 19 21 20 16
276 269 260 254 246 235 228 227 228 221 219 216 213 211 210 214 217 220 226 218 296 347 353 2 8 3 8 21 26 26 25 21
277 264 257 254 248 235 229 229 229 224 217 214 211 210 212 213 213 213 217 210 247 340 353 1 9 7 10 26 29 29 28 22
285 268 253 248 245 239 233 233 231 223 216 209 210 211 210 211 211 211 208 209 224 325 351 4 13 14 8 28 29 29 31 26
306 294 262 247 238 230 227 226 227 225 217 210 208 208 210 211 212 211 203 212 215 259 354 8 17 17 6 29 30 32 31 30
348 5 303 225 220 220 222 225 225 221 219 211 209 207 208 209 212 212 204 213 208 201 357 13 24 21 9 33 32 32 32 32
61 76 76 135 203 210 221 225 223 224 217 211 207 204 204 208 210 209 212 213 207 199 217 16 32 24 18 43 41 39 37 39
52 52 37 203 211 212 222 219 224 221 217 210 206 205 204 207 207 205 212 211 207 201 199 76 35 31 32 46 48 48 49 48
295 279 265 263 257 242 221 224 220 213 212 206 204 205 206 207 205 207 210 209 207 206 202 162 60 38 44 58 60 61 59 56
259 261 271 268 264 252 246 236 222 214 208 203 202 205 205 205 206 211 211 208 208 206 203 193 136 58 48 53 82 80 69 57
270 272 276 275 271 265 256 238 220 212 209 203 203 205 206 206 207 208 210 210 215 208 204 201 182 100 62 60 96 105 89 70
260 251 270 279 271 268 257 240 226 219 211 205 204 204 206 205 200 203 207 206 203 201 199 201 198 166 83 79 102 124 128 108
279 271 275 282 278 270 256 245 232 223 217 209 206 206 206 203 204 201 198 202 204 203 197 194 200 186 124 88 102 126 151 146
273 266 266 268 265 264 253 243 235 223 218 217 210 209 208 206 205 206 206 200 197 198 198 200 201 194 163 122 107 115 145 167
272 271 274 266 260 256 248 243 232 230 223 218 215 213 211 210 206 209 207 207 205 199 198 198 199 194 179 165 119 113 133 164